Weather History for Edinburgh Airport, United Kingdom

Change the Weather History Date:

Saturday, October 5, 2013

  Actual Average Record
Temperature  
Mean Temperature 56 °F -  
Max Temperature 60 °F 55 °F - ()
Min Temperature 51 °F 42 °F - ()
Degree Days  
Heating Degree Days 10    
Growing Degree Days 6 (Base 50)    
Moisture  
Dew Point 51 °F    
Average Humidity 85    
Maximum Humidity 94    
Minimum Humidity 67    
Precipitation  
Precipitation 0.00 in 0.08 in - ()
Sea Level Pressure  
Sea Level Pressure 29.99 in    
Wind  
Wind Speed 9 mph ()    
Max Wind Speed 16 mph    
Max Gust Speed -    
Visibility 6.2 miles    
Events      
T = Trace of Precipitation, MM = Missing Value Source: Averaged Metar Reports

Daily Weather History Graph

Daily Weather History Graph

Search for Another Location

Airport:

Trip Planner

Search our weather history database for the weather conditions in past years. The results will help you decide how hot, cold, wet, or windy it might be!

Date:

Astronomy

Oct. 05, 2013 Rise Set
Actual Time 7:24 AM BST 6:37 PM BST
Civil Twilight 6:47 AM BST 7:14 PM BST
Nautical Twilight 6:04 AM BST 7:57 PM BST
Astronomical Twilight 5:19 AM BST 8:41 PM BST
Moon 7:59 AM BST (10/5) 6:32 PM BST (10/5)
Length of Visible Light 12h 27m
Length of Day
11h 13m
New Moon, 0% of the Moon is Illuminated
Oct 5
New Moon
Oct 12
First Quarter
Oct 19
Full
Oct 27
Last Quarter
Nov 3
New

Hourly Weather History & Observations

Time (BST) Temp. Dew Point Humidity Pressure Visibility Wind Dir Wind Speed Gust Speed Precip Events Conditions
12:20 AM 53.6 °F 51.8 °F 94% 29.83 in 6.2 mi West 8.1 mph - N/A   Mostly Cloudy
12:50 AM 55.4 °F 51.8 °F 88% 29.83 in 6.2 mi West 9.2 mph - N/A   Mostly Cloudy
1:20 AM 55.4 °F 51.8 °F 88% 29.83 in 6.2 mi WSW 10.4 mph - N/A   Mostly Cloudy
1:50 AM 53.6 °F 51.8 °F 94% 29.83 in 6.2 mi WSW 10.4 mph - N/A   Mostly Cloudy
2:20 AM 53.6 °F 51.8 °F 94% 29.86 in 6.2 mi WSW 8.1 mph - N/A   Overcast
2:50 AM 53.6 °F 51.8 °F 94% 29.86 in 6.2 mi West 4.6 mph - N/A   Mostly Cloudy
3:20 AM 53.6 °F 51.8 °F 94% 29.89 in 6.2 mi WSW 6.9 mph - N/A   Mostly Cloudy
3:50 AM 53.6 °F 51.8 °F 94% 29.89 in 6.2 mi SW 8.1 mph - N/A   Mostly Cloudy
4:20 AM 53.6 °F 51.8 °F 94% 29.89 in 6.2 mi WSW 6.9 mph - N/A   Mostly Cloudy
4:50 AM 53.6 °F 51.8 °F 94% 29.89 in 6.2 mi WSW 5.8 mph - N/A   Mostly Cloudy
5:20 AM 53.6 °F 51.8 °F 94% 29.92 in 6.2 mi WSW 6.9 mph - N/A   Mostly Cloudy
5:50 AM 53.6 °F 51.8 °F 94% 29.92 in 6.2 mi WSW 9.2 mph - N/A   Mostly Cloudy
6:20 AM 53.6 °F 51.8 °F 94% 29.92 in 6.2 mi WSW 9.2 mph - N/A   Mostly Cloudy
6:50 AM 53.6 °F 50.0 °F 88% 29.92 in 6.2 mi WSW 9.2 mph - N/A   Overcast
7:20 AM 51.8 °F 50.0 °F 94% 29.95 in 6.2 mi WSW 9.2 mph - N/A   Scattered Clouds
7:50 AM 51.8 °F 50.0 °F 94% 29.95 in 6.2 mi WSW 10.4 mph - N/A   Scattered Clouds
8:20 AM 53.6 °F 50.0 °F 88% 29.98 in 6.2 mi WSW 10.4 mph - N/A   Scattered Clouds
8:50 AM 53.6 °F 50.0 °F 88% 29.98 in 6.2 mi WSW 10.4 mph - N/A   Scattered Clouds
9:20 AM 53.6 °F 50.0 °F 88% 30.01 in 6.2 mi WSW 12.7 mph - N/A   Mostly Cloudy
9:50 AM 55.4 °F 51.8 °F 88% 30.01 in 6.2 mi WSW 8.1 mph - N/A   Mostly Cloudy
10:20 AM 57.2 °F 51.8 °F 82% 30.01 in 6.2 mi WSW 12.7 mph - N/A   Mostly Cloudy
10:50 AM 57.2 °F 51.8 °F 82% 30.04 in 6.2 mi WSW 10.4 mph - N/A   Mostly Cloudy
11:20 AM 55.4 °F 51.8 °F 88% 30.04 in 6.2 mi WSW 11.5 mph - N/A   Scattered Clouds
11:50 AM 59.0 °F 53.6 °F 82% 30.04 in 6.2 mi WSW 12.7 mph - N/A   Scattered Clouds
12:20 PM 57.2 °F 51.8 °F 82% 30.04 in 6.2 mi WSW 10.4 mph - N/A   Mostly Cloudy
12:50 PM 59.0 °F 51.8 °F 77% 30.04 in 6.2 mi SW 15.0 mph - N/A   Mostly Cloudy
1:20 PM 59.0 °F 51.8 °F 77% 30.04 in 6.2 mi WSW 13.8 mph - N/A   Mostly Cloudy
1:50 PM 59.0 °F 50.0 °F 72% 30.04 in 6.2 mi WSW 16.1 mph - N/A   Mostly Cloudy
2:20 PM 59.0 °F 51.8 °F 77% 30.06 in 6.2 mi WSW 12.7 mph - N/A   Overcast
2:50 PM 59.0 °F 51.8 °F 77% 30.06 in 6.2 mi WSW 11.5 mph - N/A   Mostly Cloudy
3:20 PM 59.0 °F 50.0 °F 72% 30.06 in 6.2 mi WSW 11.5 mph - N/A   Overcast
3:50 PM 60.8 °F 50.0 °F 68% 30.06 in 6.2 mi WSW 15.0 mph - N/A   Mostly Cloudy
4:20 PM 59.0 °F 48.2 °F 67% 30.06 in 6.2 mi WSW 11.5 mph - N/A   Scattered Clouds
4:50 PM 60.8 °F 50.0 °F 68% 30.06 in 6.2 mi WSW 10.4 mph - N/A   Scattered Clouds
5:20 PM 59.0 °F 50.0 °F 72% 30.06 in 6.2 mi WSW 13.8 mph - N/A   Partly Cloudy
5:50 PM 57.2 °F 50.0 °F 77% 30.06 in - WSW 10.4 mph - N/A   Clear
6:20 PM 55.4 °F 48.2 °F 77% 30.06 in - WSW 6.9 mph - N/A   Clear
6:50 PM 55.4 °F 50.0 °F 82% 30.06 in 6.2 mi West 4.6 mph - N/A   Scattered Clouds
7:20 PM 55.4 °F 50.0 °F 82% 30.06 in 6.2 mi WSW 4.6 mph - N/A   Mostly Cloudy
7:50 PM 57.2 °F 50.0 °F 77% 30.06 in 6.2 mi SW 10.4 mph - N/A   Mostly Cloudy
8:20 PM 55.4 °F 50.0 °F 82% 30.06 in 6.2 mi SW 10.4 mph - N/A   Scattered Clouds
8:50 PM 55.4 °F 50.0 °F 82% 30.06 in - WSW 9.2 mph - N/A   Clear
9:20 PM 55.4 °F 51.8 °F 88% 30.06 in - SW 11.5 mph - N/A   Clear
9:50 PM 55.4 °F 51.8 °F 88% 30.06 in - WSW 9.2 mph - N/A   Clear
10:20 PM 53.6 °F 50.0 °F 88% 30.06 in - WSW 6.9 mph - N/A   Clear
10:50 PM 55.4 °F 51.8 °F 88% 30.06 in 6.2 mi WSW 10.4 mph - N/A   Unknown
11:20 PM 55.4 °F 51.8 °F 88% 30.06 in - WSW 11.5 mph - N/A   Clear
11:50 PM 55.4 °F 51.8 °F 88% 30.06 in - WSW 12.7 mph - N/A   Clear